Tracking 23890 objects as of 30-Nov-2021
HD Live streaming from Space Station
objects crossing your sky now

LES 2 DEB

Track LES 2 DEB now!
10-day predictions


NORAD ID: 2529
Int'l Code: 1965-034D
Perigee: 2,772.7 km
Apogee: 14,817.5 km
Inclination: 32.1 °
Period: 309.8 minutes
Semi major axis: 15166 km
RCS: 0.5711 m2 (medium)
Launch date: May 6, 1965
Source: United States (US)
Launch site: AIR FORCE EASTERN TEST RANGE (AFETR)

Note: This is SATELLITE DEBRIS
aabbcc
Your satellite tracking list
Your tracking list is empty




NASA's NSSDC Master Catalog

Two Line Element Set (TLE):
1  2529U 65034D   21334.09614670 -.00000009  00000-0  00000+0 0  9991
2  2529  32.1100 257.3125 3970963  35.7935 345.2768  4.64829121943559
Source of the keplerian elements: AFSPC